Meteo Giornale » Osservazioni meteo Gran Bretagna » Newquay
ore: 06:50 - Osservazioni Meteo Newquay
Lat. 50° 26' N Lon. 5° 0' W Alt. 119 metri s.l.m.
14 °C
Poco Nuvoloso
Temp. 24 Ore
14 °C
18 °C
Nord
3.7 Km/h
Dew point 13 °C
Umidità 93 %
Visibilità 10 Km
Il sole sorge alle ore 06:34
Il sole tramonta alle ore 20:05
| Data e Ora | Cielo e Fenomeni | T °C | DP °C | Um. % | Pres. hPa | Vis. km | Vento km/h | |
|---|---|---|---|---|---|---|---|---|
| Oggi h: 06:50 | Poco Nuvoloso | 14 | 13 | 93 | 1021 | 10 | N 3.7 | |
| Oggi h: 06:20 | Poco Nuvoloso | 14 | 13 | 93 | 1021 | 10 | N 5.5 | |
| Oggi h: 05:50 | Molto Nuvoloso | 14 | 13 | 93 | 1021 | 10 | S 9.3 | |
| Oggi h: 05:20 | Poco Nuvoloso | 14 | 13 | 93 | 1021 | 10 | N 5.5 | |
| Oggi h: 04:50 | Nuvoloso | 14 | 13 | 93 | 1021 | 10 | S 7.4 | |
| Oggi h: 04:20 | Nuvoloso | 14 | 13 | 93 | 1021 | 10 | S 9.3 | |
| Oggi h: 03:50 | Molto Nuvoloso | 14 | 13 | 93 | 1021 | 10 | S 7.4 | |
| Oggi h: 03:20 | Poco Nuvoloso | 14 | 12 | 87 | 1021 | 10 | S/SE 7.4 | |
| Oggi h: 02:50 | Molto Nuvoloso | 14 | 12 | 87 | 1021 | 10 | S 7.4 | |
| Oggi h: 02:20 | Poco Nuvoloso | 15 | 12 | 82 | 1021 | 10 | N 5.5 | |
| Oggi h: 01:50 | Poco Nuvoloso | 15 | 12 | 82 | 1021 | 10 | O 14.8 | |
| Oggi h: 01:20 | Nuvoloso | 16 | 12 | 77 | 1021 | 10 | O 13 | |
| Oggi h: 00:50 | Poco Nuvoloso | 15 | 12 | 82 | 1021 | 10 | O 14.8 | |
| Oggi h: 00:20 | Sereno | 15 | 11 | 76 | 1021 | 10 | O 13 | |
| Ieri h: 23:50 | Sereno | 15 | 12 | 82 | 1021 | 10 | O 13 | |
| Ieri h: 23:20 | Poco Nuvoloso | 15 | 11 | 76 | 1021 | 10 | O 14.8 | |
| Ieri h: 22:50 | Poco Nuvoloso | 16 | 11 | 72 | 1021 | 10 | O 14.8 | |
| Ieri h: 22:20 | Molto Nuvoloso | 16 | 12 | 77 | 1021 | 10 | O 16.7 | |
| Ieri h: 21:50 | Molto Nuvoloso | 16 | 12 | 77 | 1021 | 10 | O 14.8 | |
| Ieri h: 21:20 | Poco Nuvoloso | 16 | 11 | 72 | 1021 | 10 | O 16.7 | |
| Ieri h: 20:50 | Poco Nuvoloso | 16 | 11 | 72 | 1021 | 10 | O 18.5 | |
| Ieri h: 20:20 | Nuvoloso | 16 | 11 | 72 | 1020 | 10 | O 18.5 | |
| Ieri h: 19:50 | Poco Nuvoloso | 16 | 11 | 72 | 1020 | 10 | O 16.7 | |
| Ieri h: 19:20 | Poco Nuvoloso | 16 | 12 | 77 | 1020 | 10 | O/NO 16.7 | |
| Ieri h: 18:50 | Poco Nuvoloso | 16 | 12 | 77 | 1020 | 10 | O 18.5 | |
| Ieri h: 18:20 | Poco Nuvoloso | 17 | 11 | 67 | 1020 | 10 | O 20.3 | |
| Ieri h: 17:50 | Poco Nuvoloso | 17 | 11 | 67 | 1020 | 10 | O/NO 22.2 | |
| Ieri h: 17:20 | Poco Nuvoloso | 17 | 10 | 63 | 1019 | 10 | O/NO 25.9 | |
| Ieri h: 16:50 | Nuvoloso | 18 | 11 | 63 | 1019 | 10 | O/NO 25.9 | |
| Ieri h: 16:20 | Poco Nuvoloso | 18 | 10 | 59 | 1019 | 10 | O/NO 27.8 | |
| Ieri h: 15:50 | Poco Nuvoloso | 18 | 10 | 59 | 1019 | 10 | O/NO 27.8 | |
| Ieri h: 15:20 | Poco Nuvoloso | 18 | 10 | 59 | 1019 | 10 | NO 25.9 | |
| Ieri h: 14:50 | Nuvoloso | 18 | 11 | 63 | 1019 | 10 | O/NO 29.6 | |
| Ieri h: 14:20 | Nuvoloso | 18 | 11 | 63 | 1019 | 10 | O/NO 27.8 | |
| Ieri h: 13:50 | Nuvoloso | 18 | 12 | 67 | 1018 | 10 | O/NO 27.8 | |
| Ieri h: 13:20 | Nuvoloso | 18 | 12 | 67 | 1018 | 10 | NO 31.5 | |
| Ieri h: 12:50 | Poco Nuvoloso | 18 | 12 | 67 | 1018 | 10 | NO 35.2 | |
| Ieri h: 12:20 | Poco Nuvoloso | 18 | 12 | 67 | 1017 | 10 | NO 37 | |
| Ieri h: 11:50 | Molto Nuvoloso | 18 | 13 | 72 | 1017 | 10 | O/NO 35.2 | |
| Ieri h: 11:20 | Molto Nuvoloso | 17 | 13 | 77 | 1016 | 10 | NO 35.2 | |
| Ieri h: 10:50 | Molto Nuvoloso | 17 | 13 | 77 | 1016 | 10 | O/NO 31.5 | |
| Ieri h: 10:20 | Molto Nuvoloso | 17 | 13 | 77 | 1015 | 10 | NO 33.3 | |
| Ieri h: 09:50 | Molto Nuvoloso | 17 | 14 | 82 | 1015 | 10 | NO 35.2 | |
| Ieri h: 09:20 | Molto Nuvoloso | 17 | 15 | 88 | 1014 | 10 | NO 31.5 | |
| Ieri h: 08:50 | Molto Nuvoloso | 17 | 15 | 88 | 1014 | 10 | O/NO 29.6 | |
| Ieri h: 08:20 | Molto Nuvoloso | 17 | 15 | 88 | 1013 | 10 | O/NO 35.2 | |
| Ieri h: 07:50 | Poco Nuvoloso | 16 | 14 | 87 | 1013 | 10 | O/NO 31.5 | |



